Location: B�rgermoos
(47.6500°N, 9.0667°E)
Time: 16:14:36
(UTC+00:00)

Vanguard 1 - Pass Details

Date: 03 August 2021
Orbit: 652 x 3831 km, 34.3° (Epoch: 17 September)

Event Time Altitude Azimuth Distance (km) Brightness Sun altitude
Rises 16:12:21 0° 254° (WSW) 4,678 14.8 25.7°
Reaches altitude 10° 16:20:00 10° 217° (SW) 4,593 14.1 24.4°
Maximum altitude 16:21:35 10° 209° (SSW) 4,744 14.0 24.1°
Drops below altitude 10° 16:23:16 10° 202° (SSW) 4,951 14.0 23.9°
Sets 16:34:48 0° 170° (S) 7,030 14.3 21.9°
